GFSSW_con_3kmhel_045.txt.gz
Helicity
59 45 47 46 48 42 40 33 33 37 33 40 38 18 15 23 49 15 8 9 45 68 40 28 8 -6 -11 4 18 -0 17 -10 32 37 220 54 115 69 16 1 59 16 24 51 173
57 46 50 54 50 39 31 23 24 33 42 48 32 20 16 29 37 38 38 75 75 49 29 16 -10 -0 -6 -5 14 6 -19 16 97 102 52 86 39 17 6 50 28 8 65 106 119
54 48 46 49 44 35 36 23 22 36 46 46 33 16 21 47 14 48 85 92 66 39 7 -12 9 -5 -5 2 -3 -3 38 39 52 -19 49 -6 -19 -38 25 -11 35 25 41 50 35
52 44 43 48 37 33 36 37 31 44 48 39 22 16 37 28 51 72 48 26 54 26 15 -8 -2 -13 -4 -1 -9 27 24 50 38 60 13 -11 -23 -18 43 8 50 75 87 31 16
51 43 42 42 38 30 32 30 39 52 46 26 10 13 13 17 -2 54 2 21 32 27 35 -2 6 8 3 -6 1 19 5 36 52 55 36 48 25 193 51 27 6 94 30 9 -0
49 43 42 40 39 33 29 34 47 49 37 14 1 9 -8 9 45 16 6 -2 8 32 51 23 11 26 61 40 -0 16 61 50 96 17 12 33 54 43 9 21 54 36 5 3 8
47 43 41 43 37 31 31 36 45 42 23 3 -4 -8 -20 -6 39 20 -2 -7 -5 27 51 -17 22 21 17 21 39 31 72 14 -21 24 37 57 -17 67 3 5 41 42 -2 10 19
47 43 45 42 37 32 32 39 38 28 15 -2 -12 -25 -14 33 -18 36 26 64 9 18 18 23 13 35 59 46 20 -3 38 27 33 21 63 36 49 -7 -19 2 11 17 17 10 23
47 46 41 42 37 30 33 33 35 22 14 -0 -9 -10 16 26 30 44 20 8 22 -2 -3 5 9 35 24 35 45 13 -10 1 -0 19 9 44 67 30 -6 3 26 18 19 11 18
52 47 41 42 40 27 37 28 40 22 15 1 -24 -8 14 18 54 50 8 4 -0 15 4 5 36 33 40 29 12 -14 -3 37 -1 6 -9 4 74 23 21 8 32 29 40 47 47
46 49 47 44 33 32 46 37 32 29 20 -13 19 -31 55 87 48 -2 22 5 -8 6 74 31 12 12 27 46 -10 36 16 -2 51 18 -6 9 47 24 22 16 25 35 43 53 66
51 54 51 47 30 42 27 16 36 15 -6 60 2 -34 57 75 75 -5 27 -9 9 77 120 40 20 19 19 5 2 22 7 12 40 3 -8 8 34 37 35 37 44 64 65 62 79
52 58 55 45 43 43 4 -7 -2 25 7 10 1 -16 -11 -5 11 -8 28 1 7 -35 39 62 48 9 23 5 1 18 29 70 19 32 14 3 39 44 40 41 42 55 50 69 82
55 58 54 52 35 16 -1 -1 -23 1 13 42 9 -20 -10 -18 -14 32 38 12 17 11 18 26 98 15 6 10 24 7 49 26 22 25 48 23 15 52 88 107 85 71 81 119 99
63 61 56 10 107 42 94 -4 -7 -6 78 68 34 13 19 -10 31 34 50 14 61 5 19 -5 3 16 -4 64 40 38 31 19 10 7 -9 13 -16 159 92 119 113 102 90 106 175
78 70 65 68 21 78 82 53 -5 45 90 50 45 30 31 -0 20 45 30 51 65 31 -2 40 59 44 71 41 42 24 -1 -8 -19 -0 8 23 -0 34 114 41 125 116 89 138 131
97 82 68 50 87 28 68 9 87 86 49 81 68 29 11 23 26 27 38 48 45 23 17 25 27 50 34 34 21 -13 -6 3 -1 18 -6 82 40 -7 88 120 108 132 82 104 112
120 100 67 57 64 108 47 75 143 34 47 28 18 8 6 15 5 17 28 23 20 41 11 25 38 46 33 27 23 -23 41 9 21 23 19 70 11 81 125 62 69 94 80 96 88
139 120 91 42 62 139 77 58 57 41 15 19 7 8 2 20 28 27 33 27 -2 13 -53 25 56 78 64 38 26 6 -13 66 44 28 16 -2 31 51 45 43 44 96 99 104 109
155 117 70 41 55 123 117 -2 -15 16 -1 2 29 -5 26 39 34 24 21 23 52 77 41 30 27 18 45 16 14 36 81 13 17 22 15 13 24 67 27 35 31 84 104 112 83
155 167 82 52 97 126 94 26 -9 55 20 -23 -5 6 -2 32 19 8 8 52 47 34 49 25 29 4 31 -8 10 36 16 21 61 48 44 64 43 96 47 33 27 41 88 120 95
192 213 109 120 229 144 103 32 -7 2 16 4 -5 13 17 24 26 19 18 9 59 72 27 52 40 29 -14 91 70 78 32 20 35 19 38 64 46 24 67 32 27 47 94 98 119
268 225 122 63 231 157 88 41 -25 -5 12 2 24 27 43 43 28 24 27 130 77 77 74 82 53 25 42 44 52 30 12 25 33 82 37 51 42 53 84 63 51 49 90 92 116
312 286 231 199 105 98 56 42 14 40 47 29 24 29 60 47 39 36 41 83 98 117 150 135 39 56 -0 26 67 21 10 20 40 46 27 -14 16 56 76 53 75 88 68 109 115
306 227 246 237 114 66 42 86 30 27 75 45 46 44 43 53 29 47 53 75 80 93 92 97 52 23 28 68 67 62 41 24 -28 -12 -35 19 -2 24 46 72 99 105 115 95 170
352 184 109 144 133 81 31 30 12 22 39 47 46 25 24 41 36 28 45 51 65 63 69 76 57 74 46 41 33 30 25 22 20 20 -20 -20 -35 27 113 112 121 82 139 103 123
224 135 121 162 119 104 106 63 33 19 90 108 22 23 47 87 136 125 111 84 82 49 47 61 68 49 35 74 65 22 2 -5 -15 22 42 31 36 120 154 87 81 111 125 90 89

GFSSW_con_3kmhel_048.txt.gz
Helicity
57 56 47 44 41 42 42 38 38 33 30 27 31 32 28 17 17 7 30 30 40 79 -2 12 13 -26 -13 -2 32 26 7 -9 12 20 93 211 33 66 1 35 -1 45 -11 107 153
46 51 47 45 41 37 33 34 41 34 28 33 37 33 23 13 -12 25 71 99 98 79 11 1 -18 -33 -10 8 7 2 -15 -11 42 -11 -14 54 109 16 21 19 41 122 132 162 114
40 48 44 42 43 35 31 31 33 29 33 39 35 32 10 3 11 56 35 121 146 70 13 16 16 28 -3 10 -8 -5 12 25 83 -26 -34 -2 -16 -39 74 96 -40 77 59 30 50
53 51 48 37 40 32 30 27 27 23 36 38 32 13 1 -7 98 44 19 56 60 9 12 32 11 -3 5 11 -12 13 9 6 49 10 14 27 -4 94 86 80 -63 -8 21 38 21
65 58 50 38 36 33 27 25 23 29 38 35 27 11 9 20 -1 67 20 34 21 24 22 42 -7 -9 -1 -0 9 -18 21 74 20 34 3 146 42 -5 52 -13 -68 -12 4 4 18
69 62 52 41 32 30 27 24 24 37 35 24 17 9 11 29 -16 51 23 12 9 30 34 56 14 25 37 64 18 20 72 93 122 67 33 115 163 -37 -23 77 85 30 30 30 -10
69 63 54 48 31 30 22 19 29 38 27 17 12 3 -2 30 -43 40 4 -14 -16 41 33 43 18 24 10 74 36 54 97 74 77 75 31 161 -13 101 10 56 18 19 22 11 71
74 63 57 45 29 29 19 15 30 33 24 12 12 -8 24 -14 9 55 64 51 81 29 11 37 50 26 47 47 31 35 13 71 74 59 -11 39 -105 7 44 20 37 50 69 57 65
76 66 58 41 34 32 21 14 28 25 29 4 20 12 23 9 27 47 45 46 42 14 14 6 14 22 42 65 58 48 60 144 51 61 -5 -36 -6 40 29 25 32 27 37 42 45
73 71 54 40 37 38 28 13 7 18 33 17 2 -6 -8 1 12 32 17 6 2 33 -6 -5 18 41 35 -5 46 23 15 -0 -3 37 47 70 10 77 20 30 41 29 32 50 49
72 70 51 39 37 39 40 23 60 44 36 30 56 -11 -10 31 70 -3 48 15 9 28 -28 36 -2 6 36 25 26 13 9 6 22 25 5 -11 91 88 37 4 80 64 51 61 65
69 63 51 41 43 42 39 28 136 66 -3 50 2 -7 -6 -17 41 4 14 -14 32 3 11 12 31 35 57 31 61 47 27 24 26 33 -16 -8 39 98 49 41 23 87 116 103 99
73 62 54 49 44 43 33 7 35 58 18 -4 70 13 1 22 -5 -21 22 -8 11 20 -30 -21 -78 103 33 73 44 29 54 90 102 36 -7 -18 -4 98 67 7 -4 65 97 114 148
83 67 57 68 55 33 38 33 -3 -4 35 19 62 7 -19 -19 -9 9 36 -22 -10 -26 60 21 5 146 142 30 26 35 73 -26 71 -93 15 38 -33 153 44 36 40 51 115 166 172
93 73 61 47 120 69 169 72 21 7 128 68 89 10 9 -1 28 -24 9 19 52 60 -30 35 3 16 37 15 27 -53 15 83 5 22 27 89 -43 101 49 52 37 44 43 64 119
106 79 77 71 48 64 132 156 32 110 122 41 70 20 3 4 -10 15 5 7 6 -13 12 69 63 197 98 29 34 -5 -42 19 2 10 68 138 65 92 103 7 25 43 78 122 161
116 93 91 92 104 58 44 115 138 207 8 53 93 54 -17 17 -14 -18 23 19 21 34 7 30 -12 14 15 -18 29 3 -5 26 63 -16 20 -6 33 2 -34 21 185 96 149 114 287
132 123 82 80 141 130 117 118 162 72 -1 15 38 39 16 -9 6 13 -10 13 22 19 11 61 -6 -12 39 28 62 51 22 -13 32 26 27 144 5 82 162 128 132 190 162 203 202
211 149 108 73 73 126 155 138 186 105 53 -4 15 30 13 -16 5 20 -8 11 5 14 40 46 110 143 142 19 39 68 18 25 12 16 -10 3 12 93 106 92 77 132 150 186 154
227 162 74 84 84 157 186 77 108 -2 17 32 -9 3 19 -12 35 3 18 -24 -21 19 78 41 3 48 46 20 19 25 42 14 5 22 13 18 -26 193 57 50 31 86 120 178 150
189 242 93 96 125 210 166 125 -13 4 -23 -10 -11 -6 -15 -7 40 -14 -0 -0 -15 62 103 12 195 -30 33 -19 12 16 -19 27 15 25 43 42 49 76 72 55 44 9 144 159 165
314 312 132 224 256 201 204 127 19 28 9 19 -87 -45 -3 -33 27 -18 14 3 17 60 20 26 37 61 -14 23 81 95 63 10 63 38 79 63 47 34 55 51 30 35 115 138 211
406 305 153 183 251 220 188 124 -13 -9 -31 32 -32 -42 -35 -52 9 6 19 117 116 20 60 46 58 36 37 21 23 34 9 38 52 111 75 66 59 49 66 52 63 35 80 147 177
380 376 299 189 200 157 187 147 64 12 -23 4 7 -29 -30 -57 14 36 36 108 100 106 94 86 71 41 32 8 54 29 -8 13 33 106 60 9 26 31 104 96 63 97 64 83 167
489 360 341 242 198 259 149 151 50 -8 8 19 -14 -7 -19 -4 -10 46 30 101 72 101 101 106 63 37 29 32 34 59 94 33 30 25 50 32 26 6 28 77 49 78 105 122 72
433 412 244 171 216 245 179 64 36 -19 68 10 16 4 9 11 28 62 21 89 65 66 76 93 86 89 95 101 77 29 49 61 20 18 9 13 28 20 89 132 179 242 182 134 149
309 368 254 208 89 267 182 117 -3 -14 37 32 28 18 38 21 66 125 56 74 15 74 58 70 88 110 66 100 118 41 22 8 8 14 27 37 39 49 75 92 182 160 103 175 110

GFSSW_con_3kmhel_051.txt.gz
Helicity
46 51 47 49 49 44 38 33 26 27 21 14 22 35 30 17 -1 14 81 52 67 58 29 9 7 28 18 26 -7 -26 -15 7 28 -52 -84 -113 18 5 2 23 41 58 92 134 184
45 48 49 48 47 37 34 32 27 26 17 21 27 39 33 5 35 81 92 61 83 62 39 -3 -32 21 75 77 56 18 15 0 5 -31 -41 -48 101 174 111 137 63 117 211 157 190
55 56 53 50 49 37 33 31 26 26 18 24 35 34 30 -4 59 52 4 61 69 93 15 -23 -4 25 23 25 61 40 49 31 18 54 86 83 175 139 286 152 34 107 96 160 196
52 57 55 49 43 31 28 28 24 17 20 26 35 24 21 19 104 35 12 40 99 42 0 -12 6 34 17 47 25 16 28 32 -3 88 54 66 -9 -53 -24 43 -21 121 95 81 121
51 54 53 49 37 27 24 27 24 9 21 25 29 19 28 34 23 13 56 39 47 20 1 10 38 16 37 18 32 3 30 36 44 28 77 4 -141 -58 56 121 -9 72 44 27 27
56 59 52 47 33 25 29 28 19 10 24 30 23 11 37 43 7 52 34 15 21 37 19 79 67 37 6 28 23 25 170 140 97 67 2 -27 19 16 23 48 7 53 -9 56 103
59 64 63 49 34 27 30 27 13 10 29 24 23 23 35 75 -1 -35 59 20 93 93 21 106 89 39 31 22 74 12 73 64 75 124 115 55 49 22 -31 -98 -31 -73 26 53 17
65 64 58 52 35 30 32 25 10 6 24 23 25 21 49 31 30 29 69 46 71 87 106 29 23 19 -5 32 55 6 20 89 59 121 134 26 48 24 10 -92 -57 9 85 60 -33
71 67 57 52 42 34 35 29 5 -1 38 27 36 35 26 -11 8 27 6 64 94 48 13 4 1 26 33 44 88 64 17 61 3 165 6 -48 -32 8 -78 37 61 66 99 120 67
75 69 55 51 40 37 48 55 15 32 44 34 22 13 -3 4 13 40 70 42 6 37 14 -1 12 17 21 21 13 29 15 59 46 51 198 78 -22 51 38 92 63 72 84 104 120
72 65 59 53 44 44 39 50 86 96 51 59 79 44 24 -12 49 25 33 20 -2 39 -9 13 6 16 21 -15 27 24 122 164 61 16 82 126 40 108 108 118 98 75 60 88 123
74 59 57 54 47 47 41 49 47 80 8 45 59 -9 8 29 -43 45 -11 -25 20 -20 8 -31 -80 -22 97 -25 11 11 19 8 -10 -22 40 16 99 120 65 166 123 115 142 187 178
76 62 55 51 56 54 59 78 53 72 57 -2 46 18 -10 -3 -2 2 -16 4 -7 16 -8 -69 -41 -36 -25 -9 -18 -21 0 -4 27 66 7 -59 45 28 13 84 129 148 184 198 320
78 63 56 72 67 57 94 122 39 35 73 29 57 16 -6 -1 -12 -19 34 0 0 14 41 -32 52 13 8 68 93 -10 71 29 38 9 15 48 8 -50 -47 37 88 172 155 223 288
91 77 60 62 89 108 123 196 51 51 54 21 82 5 19 -7 -7 -27 10 -8 9 29 9 -35 -13 57 36 106 18 -17 -44 -16 12 27 52 22 74 -7 7 -38 -11 37 192 243 300
109 106 88 71 30 60 132 184 86 106 51 82 80 58 42 -23 -35 46 -21 79 61 3 3 34 2 -21 0 26 48 14 36 39 41 20 42 65 141 -2 -1 102 55 -19 46 129 270
134 129 126 84 70 203 84 112 167 117 83 62 125 75 16 12 -12 -27 10 29 33 40 35 33 18 7 16 -39 109 56 31 85 74 1 -35 -12 124 62 7 -33 60 19 -6 118 216
142 163 104 56 89 193 164 174 113 61 45 88 118 51 51 -29 0 -25 -47 15 11 19 6 64 43 57 25 1 25 73 20 65 45 37 44 22 17 -2 10 28 42 95 74 72 230
180 214 151 32 52 147 219 155 136 106 -8 86 56 92 36 -26 -57 27 -5 -14 13 -2 -4 48 92 45 104 79 51 -3 63 51 28 17 47 2 56 136 144 131 111 84 132 290 327
287 281 120 60 122 170 218 144 235 30 138 82 63 63 57 15 -39 -12 36 12 -48 56 98 88 98 93 -21 -7 30 33 10 6 37 30 3 41 23 74 96 33 80 145 187 217 242
327 272 112 114 213 191 139 156 142 -4 117 145 127 58 26 21 -1 -2 -22 0 -15 37 182 161 106 77 81 92 -1 9 30 50 63 65 32 50 55 16 10 36 2 67 179 229 250
389 290 132 231 314 199 108 184 166 11 91 167 109 68 60 -13 -77 25 13 -28 16 115 64 50 88 22 1 9 49 48 27 43 79 42 60 34 35 50 68 65 60 -25 137 230 285
397 353 183 230 237 151 155 109 107 12 126 223 164 60 37 14 -25 13 -3 40 86 129 126 115 75 101 75 9 61 29 49 57 65 132 100 120 41 24 68 122 109 30 62 188 237
522 410 286 195 192 130 167 112 107 30 125 200 162 46 92 78 30 -18 91 132 222 171 131 100 109 80 63 34 44 41 49 27 41 140 90 82 42 12 23 183 82 48 95 111 188
530 371 425 240 123 237 137 127 117 69 107 75 81 61 43 113 -41 17 19 116 123 125 115 96 78 104 93 61 19 39 85 80 48 14 132 35 50 20 27 110 110 81 64 97 101
489 455 411 311 164 207 251 146 104 54 136 135 114 37 17 60 5 -32 15 120 109 99 79 108 96 119 101 104 114 61 133 73 56 101 67 35 36 34 23 71 133 173 180 192 224
358 381 337 265 155 203 187 180 109 71 79 161 103 71 84 11 55 81 50 105 95 93 82 102 128 168 132 123 95 48 17 47 62 70 63 55 74 134 157 159 140 162 205 171 179

GFSSW_con_3kmhel_057.txt.gz
Helicity
33 31 32 34 37 41 36 33 27 19 19 14 6 2 -5 -7 -8 37 50 25 24 15 29 6 12 17 22 18 19 25 55 24 72 79 29 -8 -31 21 49 85 102 126 116 167 196
45 40 38 38 37 41 36 34 29 19 18 11 4 -0 -3 -6 38 63 3 41 36 29 30 13 36 26 24 32 22 34 47 -4 12 3 1 -32 -37 18 26 40 134 200 200 182 163
59 54 49 44 43 41 42 37 33 23 19 10 5 3 -0 5 38 28 14 52 56 32 5 4 13 18 26 50 43 24 19 29 29 -5 -26 -30 -30 -14 8 23 90 136 120 128 124
68 64 57 50 47 46 48 43 32 25 20 12 10 9 6 39 84 43 -0 10 49 36 11 4 21 26 47 95 19 67 73 61 58 40 16 -38 -30 -2 -29 -9 65 85 87 149 21
75 69 63 60 52 54 53 43 31 27 22 12 13 18 27 60 37 10 24 34 27 29 16 13 17 30 81 108 65 38 63 5 61 49 -21 -7 15 -12 37 76 137 101 55 109 7
89 83 70 63 58 59 53 46 35 25 21 12 14 18 49 67 38 30 37 3 -2 16 -13 -4 -3 3 68 111 42 39 57 44 37 -5 -23 20 17 13 30 131 148 131 47 42 39
85 81 78 74 72 70 55 45 36 30 21 14 17 24 65 72 52 -37 -77 -28 -1 42 -3 -0 25 38 52 90 -1 9 72 40 -27 17 -1 34 2 -31 -6 145 126 95 55 27 42
72 71 80 78 71 77 70 49 43 35 18 17 33 34 55 8 -16 -96 -64 -71 3 48 53 38 43 45 40 44 32 22 22 19 -53 -45 -16 39 46 -22 19 126 79 63 34 7 62
51 62 60 72 74 73 71 70 69 31 23 49 35 42 34 -12 7 -52 -14 -30 -5 2 16 -1 9 29 52 32 51 32 -5 -30 41 53 38 -19 -31 -19 34 63 72 57 54 31 20
39 43 42 62 74 78 79 97 51 43 55 57 60 44 16 63 8 -53 -83 -15 -23 -29 -2 11 5 5 21 14 53 51 9 40 32 5 42 12 20 36 89 86 102 100 84 61 30
38 22 40 44 68 81 68 70 90 84 69 67 50 43 38 33 -18 21 -53 17 -13 -13 11 24 1 -5 -19 -41 -27 16 44 46 113 134 61 39 1 19 70 90 103 106 113 81 60
32 31 40 42 65 77 65 106 89 84 42 20 19 19 -41 -0 -30 -24 -20 15 21 4 15 22 7 7 -32 -3 -0 -9 15 70 74 31 37 43 30 29 96 128 144 154 158 108 22
49 41 33 44 65 70 86 101 73 32 51 27 59 36 16 52 -22 -66 -8 -3 60 28 4 35 27 -27 -14 -4 61 35 17 47 55 34 4 13 28 29 34 120 56 110 181 139 134
65 48 47 64 69 73 95 77 116 29 77 67 59 32 104 104 -21 -0 -33 -8 51 25 10 15 2 -11 4 31 19 57 -6 -21 28 18 1 33 37 -0 126 124 128 139 156 164 170
77 63 57 68 82 91 128 136 70 69 56 54 93 83 95 123 47 -20 -13 -3 63 63 43 5 -12 17 12 52 1 38 9 -7 17 63 31 26 23 -7 22 166 209 182 211 203 228
101 81 81 78 34 73 130 154 92 158 46 98 76 77 126 63 73 44 12 20 26 47 41 6 6 2 60 41 -25 -29 -1 38 29 38 2 6 -10 -20 51 193 173 218 255 215 281
116 117 93 71 18 75 93 155 198 140 162 124 94 83 79 79 42 90 84 37 38 13 -21 32 25 26 12 33 40 11 57 60 50 55 -15 35 41 2 16 1 45 229 258 261 343
141 156 78 61 55 126 147 219 134 92 159 133 116 130 69 122 52 53 102 66 8 71 8 -13 -64 36 34 26 49 46 52 62 47 44 30 64 14 14 -0 28 29 59 118 194 301
201 188 122 6 56 117 226 189 129 154 117 196 162 170 95 60 88 107 98 57 43 66 2 -53 -21 20 42 51 54 43 53 48 99 93 72 48 51 47 48 35 25 36 108 120 157
276 239 120 64 77 176 232 213 224 209 218 222 187 152 134 82 118 151 146 83 27 28 103 50 -38 35 47 56 40 57 64 96 98 53 45 44 41 30 52 41 34 33 11 21 94
327 326 150 134 128 273 197 240 218 129 173 277 309 220 98 116 76 137 119 38 10 15 97 127 116 35 63 52 70 127 137 132 82 68 59 49 28 -5 23 56 48 32 15 30 54
405 392 176 274 297 289 163 233 227 20 116 200 223 231 165 90 103 68 58 44 16 74 75 46 122 107 76 74 58 110 112 107 124 57 80 89 42 38 -14 -6 25 3 25 27 47
423 411 162 295 354 258 229 163 228 96 71 97 190 208 223 95 115 73 64 9 16 61 73 84 102 169 135 118 125 60 74 79 107 116 88 118 63 73 63 48 50 21 7 68 65
527 482 398 311 233 225 225 158 168 41 111 219 171 204 211 186 146 74 62 103 64 36 66 188 142 140 104 37 45 92 63 62 110 141 119 118 55 74 80 81 68 40 60 60 123
529 478 483 456 201 278 223 184 136 127 51 108 110 155 232 243 203 131 127 138 139 98 143 160 110 138 110 73 86 77 71 88 140 131 149 70 102 67 68 53 55 79 96 92 94
521 490 458 348 307 276 217 145 100 83 136 142 108 71 123 162 168 189 116 116 119 120 174 208 149 160 159 153 132 93 79 114 138 167 154 114 107 92 115 146 203 173 174 170 172
280 405 403 358 201 296 199 239 177 70 55 89 84 65 128 122 123 178 172 116 97 145 165 177 202 191 106 165 154 130 100 107 112 128 153 168 119 137 237 304 290 241 267 232 236

GFSSW_con_3kmhel_060.txt.gz
Helicity
39 36 33 32 31 35 39 42 40 33 23 9 9 4 -6 -7 7 46 46 19 12 25 28 33 25 25 27 27 35 44 49 16 15 38 19 29 6 -11 11 30 64 83 92 119 119
46 45 42 44 42 45 49 47 49 39 27 11 12 7 -3 -1 33 54 -7 18 14 35 44 42 31 31 36 24 25 52 35 -24 1 21 -7 10 18 -13 16 41 70 91 130 148 139
55 55 52 53 51 52 56 57 49 46 29 13 17 9 2 7 32 31 9 24 46 24 23 16 11 28 34 33 32 24 16 16 42 22 -2 23 -6 -19 18 -15 27 64 61 90 89
65 61 59 61 60 58 64 64 53 48 31 18 22 12 11 20 72 54 -7 16 59 39 12 8 9 25 35 46 31 -22 21 25 16 15 42 6 -8 -15 -23 -49 8 52 49 54 35
72 66 67 69 64 65 65 64 59 45 29 20 22 11 16 49 25 19 25 31 45 29 9 -0 29 33 70 63 61 49 47 19 4 24 37 31 -19 -28 -13 13 82 51 77 7 22
84 70 70 74 74 74 71 69 62 47 33 18 17 12 32 62 21 19 19 9 30 28 -6 -2 27 35 29 61 72 37 34 10 11 8 25 37 -13 -11 30 63 38 31 18 -45 -24
90 76 71 74 72 69 74 79 70 51 36 18 18 15 58 73 2 -55 -73 -22 1 27 25 4 9 47 31 83 14 22 64 21 -22 -17 19 6 -17 -13 101 68 66 26 -14 -33 -28
74 67 65 80 84 71 64 85 86 55 33 17 41 30 52 4 -35 -119 -65 -68 -23 -8 13 11 31 28 19 15 46 37 22 21 5 -18 -22 10 35 -25 138 110 42 31 4 -13 37
63 53 49 63 80 72 62 88 95 53 34 57 65 47 30 24 16 -32 -40 -43 -23 -15 15 30 20 18 30 48 72 62 13 12 25 -34 26 36 9 -13 80 24 44 11 5 9 20
66 52 41 49 63 65 67 106 69 62 57 50 87 68 31 40 32 -11 -65 -37 -11 -17 2 22 35 7 30 42 55 29 11 19 44 22 57 126 135 48 84 49 61 24 16 31 22
62 66 41 42 57 66 46 77 91 82 85 81 62 64 68 45 11 29 -1 11 -6 -19 17 12 -2 -0 36 11 -24 -50 -31 36 69 39 25 84 96 54 111 63 85 61 47 26 34
72 66 49 56 58 66 55 96 85 73 44 33 37 35 3 2 38 34 27 53 15 1 13 22 4 11 -3 -18 -13 -19 18 16 50 -0 13 38 15 37 130 118 139 139 73 51 -0
83 73 69 76 56 56 80 111 76 62 27 21 79 44 57 52 7 1 52 44 8 19 19 40 24 16 50 21 45 35 14 36 22 -19 -16 -1 10 36 99 80 76 84 114 50 57
94 96 91 90 68 54 80 79 50 28 44 32 74 46 108 88 42 -4 19 54 30 -1 19 18 46 28 16 47 30 51 27 31 34 18 28 -17 25 14 45 120 83 118 89 71 57
110 107 110 84 104 88 97 108 52 71 56 60 113 93 118 156 76 48 47 82 49 4 27 9 55 37 -21 32 -5 17 38 21 10 46 53 33 41 -7 39 33 76 99 140 116 105
130 117 136 103 76 42 76 135 98 156 113 114 87 114 181 131 120 125 83 83 35 27 -7 20 27 32 27 8 17 13 17 37 53 62 28 36 39 -21 35 6 42 67 100 137 137
156 140 140 152 75 38 20 158 221 198 157 118 97 115 116 112 132 121 166 141 121 87 4 -29 37 30 13 25 31 29 58 39 53 58 1 18 22 -23 11 -3 8 117 202 233 233
175 181 157 114 113 126 78 237 210 130 200 131 139 139 108 123 63 119 166 134 54 91 33 -4 -27 29 25 23 20 40 57 58 24 29 16 19 -2 3 6 -4 -4 8 72 147 217
182 238 187 98 100 157 213 240 226 219 127 198 166 186 167 115 128 123 113 112 72 76 52 26 -29 50 25 46 37 43 65 34 77 70 58 49 31 15 27 10 32 45 13 58 143
237 248 162 99 101 202 267 173 202 214 246 180 159 192 162 145 220 163 126 105 67 53 59 19 -20 75 62 50 52 51 35 63 72 37 14 14 20 9 36 58 87 92 49 29 22
277 284 150 170 183 260 279 262 200 163 180 199 212 218 140 168 163 168 114 104 80 60 97 103 44 49 123 105 75 89 102 109 100 112 88 18 -6 24 18 46 68 46 17 3 17
339 300 164 283 308 287 240 251 230 66 97 140 170 183 158 154 215 171 151 97 66 153 128 87 90 53 38 99 55 87 91 145 164 118 107 84 12 45 7 11 7 2 21 39 24
415 324 155 234 389 263 298 198 262 116 89 130 187 201 210 192 200 140 133 114 102 94 81 92 132 124 82 108 143 114 84 163 168 131 84 108 50 41 39 36 37 12 43 20 38
429 432 508 260 202 253 310 239 217 137 114 107 120 214 219 250 185 144 86 94 46 18 63 155 155 159 128 85 102 85 108 121 159 138 94 102 81 -6 3 37 37 40 35 57 60
324 447 639 499 241 256 249 259 182 123 122 99 69 161 202 265 248 154 100 113 83 53 89 128 134 152 114 96 98 74 82 144 179 140 115 65 132 34 51 52 50 55 46 72 64
282 460 522 377 244 319 300 184 153 119 177 141 96 25 154 221 226 224 145 101 93 120 121 169 141 170 141 147 133 107 77 101 94 88 81 108 124 126 158 118 115 117 142 165 162
327 405 455 403 227 282 275 237 217 115 139 123 82 84 114 114 165 195 159 182 148 116 134 195 229 225 165 209 196 117 107 145 157 201 202 209 174 181 197 224 224 233 261 265 229